Drummond Island, MI

1:00 PM EDT on August 31, 2016 (GMT -0400)
Drummond Island

Weather History for KDRM - June, 2013

Change the Weather History Date:

Friday, June 28, 2013

  Actual Average (KCIU) Record (KCIU)
Temperature  
Mean Temperature 64 °F -  
Max Temperature 69 °F 73 °F 84 °F (2001)
Min Temperature 60 °F 47 °F 41 °F (1979)
Growing Degree Days 14 (Base 50)    
Moisture  
Dew Point 63 °F    
Average Humidity 94    
Maximum Humidity 100    
Minimum Humidity 80    
Precipitation  
Precipitation 0.00 in - - ()
Sea Level Pressure  
Sea Level Pressure 29.63 in    
Wind  
Wind Speed 3 mph (NE)    
Max Wind Speed 7 mph    
Max Gust Speed -    
Visibility 9 miles    
Events Rain    
Averages and records for this station are not official NWS values.
T = Trace of Precipitation, MM = Missing Value Source: NWS Daily Summary

Daily Weather History Graph

Daily Weather History Graph

Search for Another Location

Airport or City:

Trip Planner

Search our weather history database for the weather conditions in past years. The results will help you decide how hot, cold, wet, or windy it might be!

Date:

Astronomy

Jun. 28, 2013 Rise Set
Actual Time 5:46 AM EDT 9:29 PM EDT
Civil Twilight 5:08 AM EDT 10:08 PM EDT
Nautical Twilight 4:16 AM EDT 10:59 PM EDT
Astronomical Twilight 3:04 AM EDT 12:11 AM EDT
Moon 12:07 AM EDT (6/28) 12:14 PM EDT (6/28)
Length of Visible Light 17h 00m
Length of Day
15h 43m
Waning Gibbous, 66% of the Moon is Illuminated
Jun 28
Waning Gibbous
Jun 30
Last Quarter
Jul 8
New
Jul 15
First Quarter
Jul 22
Full

Hourly Weather History & Observations

Time (EDT) Temp. Dew Point Humidity Pressure Visibility Wind Dir Wind Speed Gust Speed Precip Events Conditions
12:16 AM 65.5 °F 64.6 °F 97% 29.68 in 10.0 mi East 4.6 mph - N/A   Overcast
12:36 AM 64.9 °F 64.0 °F 97% 29.67 in 10.0 mi East 3.5 mph - N/A   Mostly Cloudy
12:56 AM 64.9 °F 64.4 °F 98% 29.68 in 10.0 mi East 4.6 mph - N/A   Overcast
1:16 AM 64.6 °F 64.0 °F 98% 29.67 in 10.0 mi ENE 3.5 mph - N/A   Overcast
1:36 AM 64.0 °F 63.0 °F 96% 29.66 in 10.0 mi East 3.5 mph - N/A   Mostly Cloudy
1:56 AM 63.7 °F 63.0 °F 97% 29.65 in 10.0 mi East 4.6 mph - N/A   Scattered Clouds
2:36 AM 63.5 °F 62.6 °F 97% 29.65 in 10.0 mi Calm Calm - N/A   Clear
2:55 AM 63.3 °F 62.8 °F 98% 29.64 in 10.0 mi Calm Calm - N/A   Clear
3:16 AM 62.8 °F 62.8 °F 100% 29.64 in 10.0 mi Calm Calm - N/A   Clear
3:36 AM 62.8 °F 62.8 °F 100% 29.64 in 10.0 mi Calm Calm - N/A   Clear
3:56 AM 62.8 °F 62.8 °F 100% 29.63 in 10.0 mi Calm Calm - N/A   Clear
4:16 AM 62.8 °F 62.8 °F 100% 29.63 in 10.0 mi Calm Calm - N/A   Clear
4:35 AM 62.4 °F 62.1 °F 99% 29.63 in 10.0 mi Calm Calm - N/A   Clear
4:56 AM 62.1 °F 61.9 °F 99% 29.63 in 10.0 mi Calm Calm - N/A   Scattered Clouds
5:16 AM 62.1 °F 62.1 °F 100% 29.63 in 10.0 mi Calm Calm - N/A   Scattered Clouds
5:36 AM 62.6 °F 62.6 °F 100% 29.63 in 10.0 mi Calm Calm - N/A   Overcast
5:56 AM 62.6 °F 62.6 °F 100% 29.63 in 10.0 mi Calm Calm - N/A   Overcast
6:16 AM 61.9 °F 61.7 °F 99% 29.63 in 10.0 mi Calm Calm - N/A   Mostly Cloudy
6:36 AM 60.8 °F 60.8 °F 100% 29.63 in 5.0 mi Calm Calm - N/A   Scattered Clouds
6:56 AM 61.2 °F 61.2 °F 100% 29.62 in 7.0 mi Calm Calm - N/A   Mostly Cloudy
7:16 AM 62.4 °F 62.4 °F 100% 29.62 in 10.0 mi Calm Calm - N/A   Overcast
7:36 AM 63.0 °F 63.0 °F 100% 29.62 in 10.0 mi NE 3.5 mph - N/A   Overcast
7:56 AM 63.5 °F 63.0 °F 98% 29.62 in 10.0 mi Calm Calm - N/A   Overcast
8:16 AM 63.5 °F 63.0 °F 98% 29.62 in 10.0 mi Calm Calm - N/A   Overcast
8:36 AM 63.9 °F 63.3 °F 98% 29.62 in 10.0 mi NE 3.5 mph - N/A   Overcast
8:56 AM 64.6 °F 63.7 °F 97% 29.62 in 10.0 mi ENE 3.5 mph - N/A   Overcast
9:16 AM 64.8 °F 63.5 °F 96% 29.62 in 10.0 mi East 3.5 mph - N/A   Overcast
9:36 AM 65.1 °F 63.7 °F 95% 29.62 in 10.0 mi Calm Calm - N/A   Overcast
9:56 AM 65.3 °F 63.5 °F 94% 29.62 in 10.0 mi ENE 3.5 mph - N/A   Overcast
10:16 AM 64.6 °F 63.5 °F 96% 29.62 in 3.0 mi East 4.6 mph - N/A   Overcast
10:36 AM 63.9 °F 63.7 °F 99% 29.62 in 2.5 mi ENE 3.5 mph - N/A Rain Light Rain
10:56 AM 64.0 °F 63.5 °F 98% 29.62 in 3.0 mi ENE 3.5 mph - N/A   Overcast
11:16 AM 64.4 °F 63.7 °F 98% 29.62 in 7.0 mi ENE 3.5 mph - N/A   Overcast
11:36 AM 65.7 °F 63.7 °F 93% 29.62 in 10.0 mi NE 4.6 mph - N/A   Overcast
11:56 AM 65.8 °F 63.5 °F 92% 29.62 in 10.0 mi East 4.6 mph - N/A   Overcast
12:16 PM 66.4 °F 63.7 °F 91% 29.62 in 10.0 mi ENE 4.6 mph - N/A   Overcast
12:36 PM 65.7 °F 62.8 °F 90% 29.62 in 10.0 mi East 6.9 mph - N/A   Overcast
12:56 PM 65.1 °F 62.6 °F 92% 29.63 in 10.0 mi NE 5.8 mph - N/A   Overcast
1:16 PM 64.9 °F 63.0 °F 93% 29.63 in 10.0 mi ENE 5.8 mph - N/A Rain Light Rain
1:36 PM 64.4 °F 63.1 °F 96% 29.63 in 4.0 mi Calm Calm - N/A   Drizzle
1:56 PM 64.4 °F 63.7 °F 98% 29.63 in 7.0 mi ENE 3.5 mph - N/A   Light Drizzle
2:16 PM 64.4 °F 63.7 °F 98% 29.62 in 5.0 mi ENE 3.5 mph - N/A Rain Light Rain
2:36 PM 65.3 °F 63.9 °F 95% 29.62 in 10.0 mi ENE 3.5 mph - N/A   Overcast
2:56 PM 66.7 °F 64.2 °F 92% 29.62 in 10.0 mi Calm Calm - N/A   Overcast
3:16 PM 68.4 °F 64.4 °F 87% 29.62 in 10.0 mi ENE 3.5 mph - N/A   Overcast
3:36 PM 68.9 °F 64.4 °F 86% 29.62 in 10.0 mi Calm Calm - N/A   Overcast
3:56 PM 69.4 °F 63.0 °F 80% 29.62 in 10.0 mi ENE 4.6 mph - N/A   Overcast
4:16 PM 68.9 °F 62.8 °F 81% 29.62 in 10.0 mi North 5.8 mph - N/A   Overcast
4:36 PM 68.7 °F 63.0 °F 82% 29.62 in 10.0 mi NNE 3.5 mph - N/A   Overcast
4:56 PM 68.2 °F 63.5 °F 85% 29.62 in 10.0 mi North 3.5 mph - N/A   Overcast
5:16 PM 67.8 °F 63.1 °F 85% 29.62 in 10.0 mi North 3.5 mph - N/A   Overcast
5:36 PM 67.6 °F 63.7 °F 87% 29.62 in 10.0 mi North 3.5 mph - N/A   Overcast
5:56 PM 67.5 °F 63.7 °F 88% 29.62 in 10.0 mi North 3.5 mph - N/A   Overcast
6:16 PM 67.6 °F 64.2 °F 89% 29.62 in 10.0 mi North 3.5 mph - N/A   Overcast
6:36 PM 67.5 °F 63.7 °F 88% 29.62 in 10.0 mi NE 3.5 mph - N/A   Overcast
6:56 PM 67.5 °F 64.0 °F 89% 29.62 in 10.0 mi NNE 6.9 mph - N/A   Overcast
7:16 PM 66.4 °F 64.0 °F 92% 29.62 in 10.0 mi NNE 5.8 mph - N/A   Drizzle
7:36 PM 65.7 °F 63.9 °F 94% 29.63 in 10.0 mi NNE 3.5 mph - N/A   Light Drizzle
7:56 PM 65.3 °F 63.3 °F 93% 29.63 in 10.0 mi North 3.5 mph - N/A   Light Drizzle
8:15 PM 65.1 °F 62.1 °F 90% 29.64 in 10.0 mi NNE 3.5 mph - N/A   Overcast
8:36 PM 64.6 °F 62.1 °F 92% 29.64 in 10.0 mi North 3.5 mph - N/A Rain Rain
8:56 PM 64.4 °F 61.9 °F 92% 29.64 in 10.0 mi North 4.6 mph - N/A   Overcast
9:16 PM 64.4 °F 62.4 °F 93% 29.64 in 10.0 mi North 3.5 mph - N/A   Overcast
9:36 PM 64.4 °F 62.6 °F 94% 29.64 in 10.0 mi Calm Calm - N/A   Mostly Cloudy
9:56 PM 64.4 °F 62.6 °F 94% 29.64 in 10.0 mi North 3.5 mph - N/A   Mostly Cloudy
10:16 PM 64.2 °F 62.6 °F 94% 29.64 in 10.0 mi North 6.9 mph - N/A   Mostly Cloudy
10:36 PM 64.4 °F 62.6 °F 94% 29.64 in 10.0 mi North 5.8 mph - N/A   Overcast
10:56 PM 64.0 °F 62.8 °F 96% 29.64 in 10.0 mi North 4.6 mph - N/A   Mostly Cloudy
11:16 PM 63.9 °F 62.6 °F 96% 29.64 in 10.0 mi North 4.6 mph - N/A   Mostly Cloudy
11:36 PM 63.9 °F 62.6 °F 96% 29.64 in 10.0 mi North 6.9 mph - N/A   Overcast
11:56 PM 63.5 °F 62.6 °F 97% 29.64 in 10.0 mi North 3.5 mph - N/A   Overcast